Flag for Germany Weather past 2 weeks in Hennef (Sieg), North Rhine-Westphalia, Germany

Now
32 °F

Fog.


Feels Like: 28 °F
Forecast: 32 / 38 °F
Wind: 5 mph from Southwest

Location: Bonn-Hangelar

Current Time: Feb 1, 2015 at 5:47:57 AM

Latest Report: Feb 1, 2015 at 5:00 AM


Visibility: 3 mi

Pressure: 29.18 "Hg

Humidity: 96%

Dew point: 31 °F

Location of Hennef (Sieg)Location

Historic Weather in Hennef (Sieg) — Graph

°F

Hennef (Sieg) temperature yesterday

Maximum temperature yesterday: 36 °F (at 3:00 PM)
Minimum temperature yesterday: 31 °F (at 10:00 PM)
Average temperature yesterday: 34 °F

Past Weeks' High & Low Weather Summary

 TemperatureHumidityPressure
High42 °F (Jan 28, 6:00 PM)100% (Jan 19, 11:00 PM)30.46 "Hg (Jan 19, 11:00 PM)
Low26 °F (Jan 21, 7:00 AM)65% (Jan 20, 3:00 PM)28.73 "Hg (Jan 29, 10:00 PM)
Average33 °F91%29.84 "Hg
* Reported Jan 17 5:00 AM — Feb 1 5:00 AM, Hennef (Sieg), Weather by CustomWeather, © 2014

Note: Actual official high and low records may vary slightly from our data, if they occured in-between our weather recording intervals... More about our weather records

Advertising

Hennef (Sieg) weather history for previous 24 hours

 ConditionsComfort  
Time TempWeatherWind HumidityBarometerVisibility
5:00 AM
Feb 1
32 °FFog.5 mph96%29.18 "Hg2 mi
4:00 AM32 °FFog.5 mph96%29.15 "Hg13 mi
3:00 AM32 °FFog.3 mph96%29.15 "Hg4 mi
2:00 AM31 °FPassing clouds.5 mph95%29.15 "Hg8 mi
1:00 AM32 °FClear.3 mph95%29.15 "Hg6 mi
12:00 AM33 °FOvercast.3 mph95%29.15 "Hg6 mi
11:00 PM
Jan 31
32 °FLow clouds.2 mph94%29.12 "Hg6 mi
10:00 PM31 °FPassing clouds.3 mph94%29.12 "Hg6 mi
9:00 PM33 °FPassing clouds.5 mph91%29.12 "Hg7 mi
8:00 PM33 °FPassing clouds.2 mph92%29.12 "Hg6 mi
7:00 PM33 °FPassing clouds.2 mph91%29.09 "Hg9 mi
6:00 PM33 °FPassing clouds.2 mph89%29.06 "Hg11 mi
5:00 PM34 °FPartly sunny.3 mph86%29.06 "Hg16 mi
4:00 PM36 °FOvercast.5 mph82%29.03 "Hg16 mi
3:00 PM36 °FOvercast.6 mph83%29.03 "Hg16 mi
2:00 PM36 °FOvercast.6 mph86%29.03 "Hg12 mi
1:00 PM36 °FPassing clouds.7 mph85%29.03 "Hg9 mi
12:00 PM35 °FPassing clouds.7 mph87%29.00 "Hg9 mi
11:00 AM34 °FPassing clouds.6 mph89%29.00 "Hg9 mi
10:00 AM33 °FPartly sunny.7 mph92%29.00 "Hg7 mi
9:00 AM32 °FScattered clouds.6 mph94%29.00 "Hg4 mi
8:00 AM32 °FPassing clouds.6 mph95%28.97 "Hg7 mi
7:00 AM33 °FPassing clouds.6 mph94%28.94 "Hg7 mi
6:00 AM34 °FPassing clouds.6 mph95%28.94 "Hg1 mi
5:00 AM34 °FPassing clouds.5 mph95%28.94 "Hg14 mi
Weather by CustomWeather, © 2014

See weather overviewHow to use our weather pages